• In Deutschland
  • Länderverzeichnis
  • Für 7 Tage
  • Wassertemperatur
  • Satellitenkarten
  • Wetterkarte
  • Widgets
  • user-avatar
    Anmelden

    Stündliche Wetter Rheinberg

    Heute, 19 Oktober, Donnerstag

    Zeit Temperatur Niederschläge Wind Luftdruck Luftfeuchtigkeit
    00:00 +14°C° 0 mm 2 m/S 757 mmHg 85%
    01:00 +14°C° 0 mm 2 m/S 757 mmHg 86%
    02:00 +14°C° 0 mm 2 m/S 757 mmHg 86%
    03:00 +14°C° 0 mm 2 m/S 757 mmHg 87%
    04:00 +13°C° 0 mm 2 m/S 757 mmHg 87%
    05:00 +13°C° 0 mm 2 m/S 757 mmHg 87%
    06:00 +13°C° 0 mm 2 m/S 757 mmHg 87%
    07:00 +14°C° 0 mm 2 m/S 757 mmHg 82%
    08:00 +16°C° 0 mm 2 m/S 757 mmHg 76%
    09:00 +17°C° 0 mm 3 m/S 757 mmHg 71%
    10:00 +18°C° 0 mm 3 m/S 756 mmHg 67%
    11:00 +20°C° 0 mm 3 m/S 756 mmHg 63%
    12:00 +21°C° 0 mm 3 m/S 756 mmHg 59%
    13:00 +21°C° 0 mm 3 m/S 756 mmHg 61%
    14:00 +21°C° 0 mm 3 m/S 755 mmHg 62%
    15:00 +21°C° 0 mm 3 m/S 755 mmHg 63%
    16:00 +20°C° 0 mm 3 m/S 755 mmHg 66%
    17:00 +19°C° 0 mm 3 m/S 755 mmHg 68%
    18:00 +18°C° 0 mm 3 m/S 755 mmHg 71%
    19:00 +18°C° 0 mm 3 m/S 756 mmHg 70%
    20:00 +18°C° 0 mm 3 m/S 756 mmHg 69%
    21:00 +18°C° 0 mm 3 m/S 756 mmHg 67%
    22:00 +17°C° 0 mm 3 m/S 756 mmHg 67%
    23:00 +17°C° 0 mm 3 m/S 756 mmHg 66%

    Morgen, 20 Oktober, Freitag

    Zeit Temperatur Niederschläge Wind Luftdruck Luftfeuchtigkeit
    00:00 +17°C° 0 mm 3 m/S 756 mmHg 65%
    01:00 +17°C° 0,1 mm 4 m/S 756 mmHg 64%
    02:00 +17°C° 0,1 mm 4 m/S 756 mmHg 63%
    03:00 +17°C° 0,1 mm 4 m/S 756 mmHg 63%
    04:00 +17°C° 0,2 mm 4 m/S 756 mmHg 65%
    05:00 +15°C° 0,2 mm 4 m/S 756 mmHg 68%
    06:00 +15°C° 0,2 mm 4 m/S 756 mmHg 70%
    07:00 +15°C° 1 mm 4 m/S 756 mmHg 74%
    08:00 +15°C° 1 mm 4 m/S 757 mmHg 77%
    09:00 +15°C° 1 mm 5 m/S 757 mmHg 81%
    10:00 +15°C° 0,4 mm 5 m/S 757 mmHg 80%
    11:00 +16°C° 0,4 mm 5 m/S 757 mmHg 80%
    12:00 +16°C° 0,4 mm 6 m/S 757 mmHg 79%
    13:00 +16°C° 0,1 mm 5 m/S 757 mmHg 76%
    14:00 +16°C° 0,1 mm 5 m/S 757 mmHg 73%
    15:00 +16°C° 0,1 mm 5 m/S 757 mmHg 70%
    16:00 +15°C° 0 mm 4 m/S 757 mmHg 71%
    17:00 +14°C° 0 mm 4 m/S 758 mmHg 72%
    18:00 +13°C° 0 mm 4 m/S 758 mmHg 73%
    19:00 +13°C° 0 mm 4 m/S 758 mmHg 75%
    20:00 +12°C° 0 mm 3 m/S 759 mmHg 76%
    21:00 +12°C° 0 mm 3 m/S 759 mmHg 77%
    22:00 +11°C° 0 mm 3 m/S 759 mmHg 77%
    23:00 +11°C° 0 mm 3 m/S 758 mmHg 78%

    übermorgen, 21 Oktober, Samstag

    Zeit Temperatur Niederschläge Wind Luftdruck Luftfeuchtigkeit
    00:00 +11°C° 0 mm 3 m/S 758 mmHg 78%
    01:00 +11°C° 0 mm 4 m/S 758 mmHg 76%
    02:00 +12°C° 0 mm 4 m/S 757 mmHg 73%
    03:00 +12°C° 0 mm 4 m/S 757 mmHg 71%
    04:00 +12°C° 0,2 mm 5 m/S 757 mmHg 74%
    05:00 +12°C° 0,2 mm 5 m/S 756 mmHg 77%
    06:00 +13°C° 0,2 mm 5 m/S 756 mmHg 80%
    07:00 +13°C° 0,3 mm 5 m/S 756 mmHg 82%
    08:00 +14°C° 0,3 mm 5 m/S 756 mmHg 83%
    09:00 +14°C° 0,3 mm 5 m/S 756 mmHg 85%
    10:00 +15°C° 0,2 mm 6 m/S 756 mmHg 82%
    11:00 +15°C° 0,2 mm 6 m/S 756 mmHg 80%
    12:00 +15°C° 0,2 mm 6 m/S 756 mmHg 77%
    13:00 +15°C° 0 mm 6 m/S 756 mmHg 72%
    14:00 +15°C° 0 mm 6 m/S 756 mmHg 67%
    15:00 +16°C° 0 mm 6 m/S 756 mmHg 62%
    16:00 +15°C° 0 mm 6 m/S 756 mmHg 62%
    17:00 +14°C° 0 mm 6 m/S 756 mmHg 63%
    18:00 +13°C° 0 mm 5 m/S 756 mmHg 63%
    19:00 +13°C° 0 mm 6 m/S 756 mmHg 63%
    20:00 +11°C° 0 mm 6 m/S 756 mmHg 62%
    21:00 +11°C° 0 mm 7 m/S 756 mmHg 62%
    22:00 +11°C° 0 mm 7 m/S 756 mmHg 63%
    23:00 +11°C° 0 mm 7 m/S 756 mmHg 64%

    22 Oktober, Sonntag

    Zeit Temperatur Niederschläge Wind Luftdruck Luftfeuchtigkeit
    00:00 +10°C° 0 mm 7 m/S 756 mmHg 64%
    01:00 +10°C° 0 mm 7 m/S 756 mmHg 67%
    02:00 +10°C° 0 mm 7 m/S 756 mmHg 69%
    03:00 +9°C° 0 mm 7 m/S 756 mmHg 71%
    04:00 +9°C° 0 mm 7 m/S 756 mmHg 71%
    05:00 +9°C° 0 mm 7 m/S 756 mmHg 72%
    06:00 +9°C° 0 mm 7 m/S 756 mmHg 72%
    07:00 +9°C° 0 mm 7 m/S 756 mmHg 71%
    08:00 +10°C° 0 mm 8 m/S 756 mmHg 69%
    09:00 +10°C° 0 mm 8 m/S 756 mmHg 68%
    10:00 +10°C° 0,1 mm 8 m/S 756 mmHg 68%
    11:00 +10°C° 0,1 mm 8 m/S 757 mmHg 69%
    12:00 +10°C° 0,1 mm 7 m/S 757 mmHg 69%
    13:00 +10°C° 0,2 mm 7 m/S 757 mmHg 71%
    14:00 +10°C° 0,2 mm 7 m/S 757 mmHg 73%
    15:00 +10°C° 0,2 mm 7 m/S 757 mmHg 75%
    16:00 +9°C° 0,3 mm 6 m/S 757 mmHg 77%
    17:00 +9°C° 0,3 mm 6 m/S 757 mmHg 80%
    18:00 +8°C° 0,3 mm 6 m/S 758 mmHg 82%
    19:00 +8°C° 0,4 mm 6 m/S 758 mmHg 83%
    20:00 +9°C° 0,4 mm 6 m/S 758 mmHg 84%
    21:00 +9°C° 0,4 mm 6 m/S 758 mmHg 86%
    22:00 +9°C° 0,2 mm 5 m/S 759 mmHg 86%
    23:00 +9°C° 0,2 mm 5 m/S 759 mmHg 86%

    23 Oktober, Montag

    Zeit Temperatur Niederschläge Wind Luftdruck Luftfeuchtigkeit
    00:00 +9°C° 0,2 mm 5 m/S 759 mmHg 87%
    01:00 +9°C° 0,2 mm 5 m/S 759 mmHg 86%
    02:00 +9°C° 0,2 mm 5 m/S 760 mmHg 86%
    03:00 +10°C° 0,2 mm 5 m/S 760 mmHg 85%
    04:00 +9°C° 0,1 mm 5 m/S 760 mmHg 85%
    05:00 +9°C° 0,1 mm 5 m/S 761 mmHg 85%
    06:00 +9°C° 0,1 mm 5 m/S 761 mmHg 85%
    07:00 +10°C° 0 mm 5 m/S 762 mmHg 83%
    08:00 +10°C° 0 mm 5 m/S 762 mmHg 82%
    09:00 +12°C° 0 mm 5 m/S 762 mmHg 80%
    10:00 +12°C° 0,1 mm 5 m/S 762 mmHg 80%
    11:00 +12°C° 0,1 mm 5 m/S 762 mmHg 81%
    12:00 +13°C° 0,1 mm 5 m/S 763 mmHg 81%
    13:00 +13°C° 0,2 mm 5 m/S 763 mmHg 83%
    14:00 +12°C° 0,2 mm 5 m/S 763 mmHg 84%
    15:00 +12°C° 0,2 mm 5 m/S 763 mmHg 86%
    16:00 +12°C° 0,1 mm 5 m/S 763 mmHg 86%
    17:00 +12°C° 0,1 mm 5 m/S 763 mmHg 86%
    18:00 +12°C° 0,1 mm 5 m/S 764 mmHg 87%
    19:00 +12°C° 0,1 mm 5 m/S 764 mmHg 86%
    20:00 +12°C° 0,1 mm 5 m/S 764 mmHg 86%
    21:00 +12°C° 0,1 mm 5 m/S 764 mmHg 85%
    22:00 +12°C° 0,1 mm 5 m/S 764 mmHg 85%
    23:00 +12°C° 0,1 mm 5 m/S 764 mmHg 86%

    24 Oktober, Dienstag

    Zeit Temperatur Niederschläge Wind Luftdruck Luftfeuchtigkeit
    00:00 +12°C° 0,1 mm 4 m/S 764 mmHg 86%
    01:00 +12°C° 0,2 mm 4 m/S 764 mmHg 85%
    02:00 +12°C° 0,2 mm 4 m/S 764 mmHg 85%
    03:00 +12°C° 0,2 mm 4 m/S 764 mmHg 85%
    04:00 +12°C° 0,1 mm 4 m/S 765 mmHg 86%
    05:00 +11°C° 0,1 mm 4 m/S 765 mmHg 86%
    06:00 +11°C° 0,1 mm 4 m/S 765 mmHg 87%
    07:00 +12°C° 0 mm 4 m/S 765 mmHg 85%
    08:00 +12°C° 0 mm 4 m/S 765 mmHg 82%
    09:00 +13°C° 0 mm 4 m/S 766 mmHg 80%
    10:00 +14°C° 0 mm 4 m/S 766 mmHg 76%
    11:00 +15°C° 0 mm 4 m/S 766 mmHg 73%
    12:00 +15°C° 0 mm 4 m/S 765 mmHg 70%
    13:00 +16°C° 0 mm 3 m/S 765 mmHg 70%
    14:00 +16°C° 0 mm 3 m/S 765 mmHg 70%
    15:00 +16°C° 0 mm 2 m/S 765 mmHg 71%
    16:00 +15°C° 0 mm 2 m/S 765 mmHg 75%
    17:00 +14°C° 0 mm 2 m/S 766 mmHg 79%
    18:00 +13°C° 0 mm 1 m/S 766 mmHg 83%
    19:00 +13°C° 0 mm 1 m/S 766 mmHg 84%
    20:00 +12°C° 0 mm 2 m/S 766 mmHg 86%
    21:00 +12°C° 0 mm 2 m/S 766 mmHg 87%
    22:00 +12°C° 0 mm 2 m/S 766 mmHg 88%
    23:00 +10°C° 0 mm 2 m/S 766 mmHg 88%
    Mehr zeigen